Time,TemperatureF,DewpointF,PressureIn,WindDirection,WindDirectionDegrees,WindSpeedMPH,WindSpeedGustMPH,Humidity,HourlyPrecipIn,Conditions,Clouds,dailyrainin,SoftwareType,DateUTC
2013-07-08 00:00:00,74.1,43.2,0.00,East,95,0.0,0.0,33,0.00,CLR,,0.00,WeatherDisplay:10.37,2013-07-08 04:00:00,
2013-07-08 00:05:00,74.1,43.9,0.00,East,93,0.0,0.0,34,0.00,CLR,,0.00,WeatherDisplay:10.37,2013-07-08 04:05:00,
2013-07-08 00:10:00,74.1,43.9,0.00,East,94,0.0,0.0,34,0.00,CLR,,0.00,WeatherDisplay:10.37,2013-07-08 04:10:00,
2013-07-08 00:15:00,74.1,43.9,0.00,East,95,0.0,0.0,34,0.00,CLR,,0.00,WeatherDisplay:10.37,2013-07-08 04:15:00,
2013-07-08 00:20:00,74.1,43.9,0.00,East,95,0.0,0.0,34,0.00,CLR,,0.00,WeatherDisplay:10.37,2013-07-08 04:20:00,
2013-07-08 00:25:00,74.1,43.9,0.00,East,95,0.0,0.0,34,0.00,CLR,,0.00,WeatherDisplay:10.37,2013-07-08 04:25:00,
2013-07-08 00:30:00,73.9,43.8,0.00,East,95,0.0,0.0,34,0.00,CLR,,0.00,WeatherDisplay:10.37,2013-07-08 04:30:00,
2013-07-08 00:35:00,73.9,43.8,0.00,East,95,0.0,0.0,34,0.00,CLR,,0.00,WeatherDisplay:10.37,2013-07-08 04:35:00,
2013-07-08 00:40:00,73.9,43.8,0.00,East,95,0.0,0.0,34,0.00,CLR,,0.00,WeatherDisplay:10.37,2013-07-08 04:40:00,
2013-07-08 00:45:00,73.8,43.6,0.00,East,95,0.0,0.0,34,0.00,CLR,,0.00,WeatherDisplay:10.37,2013-07-08 04:45:00,
2013-07-08 00:50:00,73.8,43.6,0.00,East,95,0.0,0.0,34,0.00,CLR,,0.00,WeatherDisplay:10.37,2013-07-08 04:50:00,
2013-07-08 00:55:00,73.8,43.6,0.00,East,95,0.0,0.0,34,0.00,CLR,,0.00,WeatherDisplay:10.37,2013-07-08 04:55:00,
2013-07-08 01:00:00,73.8,43.6,0.00,East,95,0.0,0.0,34,0.00,CLR,,0.00,WeatherDisplay:10.37,2013-07-08 05:00:00,
2013-07-08 01:05:00,73.8,43.6,0.00,East,95,0.0,0.0,34,0.00,CLR,,0.00,WeatherDisplay:10.37,2013-07-08 05:05:00,
2013-07-08 01:10:00,73.8,43.6,0.00,East,95,0.0,0.0,34,0.00,CLR,,0.00,WeatherDisplay:10.37,2013-07-08 05:10:00,
2013-07-08 01:15:00,73.8,43.6,0.00,East,95,0.0,0.0,34,0.00,CLR,,0.00,WeatherDisplay:10.37,2013-07-08 05:15:00,
2013-07-08 01:20:00,73.8,43.6,0.00,East,95,0.0,0.0,34,0.00,CLR,,0.00,WeatherDisplay:10.37,2013-07-08 05:20:00,
2013-07-08 01:25:00,73.6,43.5,0.00,East,94,0.0,0.0,34,0.00,CLR,,0.00,WeatherDisplay:10.37,2013-07-08 05:25:00,
2013-07-08 01:30:00,73.6,43.5,0.00,East,93,0.0,0.0,34,0.00,CLR,,0.00,WeatherDisplay:10.37,2013-07-08 05:30:00,
2013-07-08 01:35:00,73.4,43.3,0.00,East,91,0.0,0.0,34,0.00,CLR,,0.00,WeatherDisplay:10.37,2013-07-08 05:35:00,
2013-07-08 01:40:00,73.3,43.2,0.00,East,88,0.0,0.0,34,0.00,CLR,,0.00,WeatherDisplay:10.37,2013-07-08 05:40:00,
2013-07-08 01:45:00,73.2,43.9,0.00,East,88,0.0,0.0,35,0.00,CLR,,0.00,WeatherDisplay:10.37,2013-07-08 05:45:00,
2013-07-08 01:50:00,73.0,43.8,0.00,East,88,0.0,0.0,35,0.00,CLR,,0.00,WeatherDisplay:10.37,2013-07-08 05:50:00,
2013-07-08 01:55:00,73.0,43.8,0.00,East,88,0.0,0.0,35,0.00,CLR,,0.00,WeatherDisplay:10.37,2013-07-08 05:55:00,
2013-07-08 02:00:00,73.0,43.8,0.00,East,85,0.0,0.0,35,0.00,CLR,,0.00,WeatherDisplay:10.37,2013-07-08 06:00:00,
2013-07-08 02:05:00,73.0,43.8,0.00,East,81,0.0,0.0,35,0.00,CLR,,0.00,WeatherDisplay:10.37,2013-07-08 06:05:00,
2013-07-08 02:10:00,73.0,44.5,0.00,East,79,0.0,0.0,36,0.00,CLR,,0.00,WeatherDisplay:10.37,2013-07-08 06:10:00,
2013-07-08 02:15:00,72.9,44.3,0.00,East,79,0.0,0.0,36,0.00,CLR,,0.00,WeatherDisplay:10.37,2013-07-08 06:15:00,
2013-07-08 02:20:00,72.9,44.3,0.00,East,79,0.0,0.0,36,0.00,CLR,,0.00,WeatherDisplay:10.37,2013-07-08 06:20:00,
2013-07-08 02:25:00,72.9,44.3,0.00,East,79,0.0,0.0,36,0.00,CLR,,0.00,WeatherDisplay:10.37,2013-07-08 06:25:00,
2013-07-08 02:30:00,72.9,44.3,0.00,East,79,0.0,0.0,36,0.00,CLR,,0.00,WeatherDisplay:10.37,2013-07-08 06:30:00,
2013-07-08 02:35:00,72.9,44.3,0.00,East,79,0.0,0.0,36,0.00,CLR,,0.00,WeatherDisplay:10.37,2013-07-08 06:35:00,
2013-07-08 02:40:00,72.7,44.2,0.00,East,79,0.0,0.0,36,0.00,CLR,,0.00,WeatherDisplay:10.37,2013-07-08 06:40:00,
2013-07-08 02:45:00,72.7,44.2,0.00,East,79,0.0,0.0,36,0.00,CLR,,0.00,WeatherDisplay:10.37,2013-07-08 06:45:00,
2013-07-08 02:50:00,72.7,44.2,0.00,ENE,75,0.0,0.0,36,0.00,CLR,,0.00,WeatherDisplay:10.37,2013-07-08 06:50:00,
2013-07-08 02:55:00,72.7,44.2,0.00,ENE,65,0.0,0.0,36,0.00,CLR,,0.00,WeatherDisplay:10.37,2013-07-08 06:55:00,
2013-07-08 03:00:00,72.7,44.2,0.00,ENE,61,0.0,0.0,36,0.00,CLR,,0.00,WeatherDisplay:10.37,2013-07-08 07:00:00,
2013-07-08 03:05:00,72.9,44.3,0.00,ENE,61,0.0,0.0,36,0.00,CLR,,0.00,WeatherDisplay:10.37,2013-07-08 07:05:00,
2013-07-08 03:10:00,72.9,44.3,0.00,ENE,61,0.0,0.0,36,0.00,CLR,,0.00,WeatherDisplay:10.37,2013-07-08 07:10:00,
2013-07-08 03:15:00,72.9,44.3,0.00,ENE,61,0.0,0.0,36,0.00,CLR,,0.00,WeatherDisplay:10.37,2013-07-08 07:15:00,
2013-07-08 03:20:00,72.9,44.3,0.00,ENE,63,0.0,0.0,36,0.00,CLR,,0.00,WeatherDisplay:10.37,2013-07-08 07:20:00,
2013-07-08 03:25:00,72.9,44.3,0.00,ENE,66,0.0,0.0,36,0.00,CLR,,0.00,WeatherDisplay:10.37,2013-07-08 07:25:00,
2013-07-08 03:31:00,72.7,44.2,0.00,ENE,67,0.0,0.0,36,0.00,CLR,,0.00,WeatherDisplay:10.37,2013-07-08 07:31:00,
2013-07-08 03:35:00,72.7,44.2,0.00,ENE,70,0.0,0.0,36,0.00,CLR,,0.00,WeatherDisplay:10.37,2013-07-08 07:35:00,
2013-07-08 03:40:00,72.7,44.2,0.00,ENE,76,0.0,0.0,36,0.00,CLR,,0.00,WeatherDisplay:10.37,2013-07-08 07:40:00,
2013-07-08 03:45:00,72.7,44.2,0.00,ENE,78,0.0,0.0,36,0.00,CLR,,0.00,WeatherDisplay:10.37,2013-07-08 07:45:00,
2013-07-08 03:50:00,72.7,44.2,0.00,ENE,78,0.0,0.0,36,0.00,CLR,,0.00,WeatherDisplay:10.37,2013-07-08 07:50:00,
2013-07-08 03:55:00,72.7,44.2,0.00,ENE,78,0.0,0.0,36,0.00,CLR,,0.00,WeatherDisplay:10.37,2013-07-08 07:55:00,
2013-07-08 04:00:00,72.7,44.2,0.00,ENE,78,0.0,0.0,36,0.00,CLR,,0.00,WeatherDisplay:10.37,2013-07-08 08:00:00,
2013-07-08 04:05:00,72.7,44.9,0.00,ENE,78,0.0,0.0,37,0.00,CLR,,0.00,WeatherDisplay:10.37,2013-07-08 08:05:00,
2013-07-08 04:10:00,72.7,44.9,0.00,East,82,0.0,0.0,37,0.00,CLR,,0.00,WeatherDisplay:10.37,2013-07-08 08:10:00,
2013-07-08 04:15:00,72.7,44.2,0.00,East,85,0.0,0.0,36,0.00,CLR,,0.00,WeatherDisplay:10.37,2013-07-08 08:15:00,
2013-07-08 04:20:00,72.7,44.9,0.00,East,85,0.0,0.0,37,0.00,CLR,,0.00,WeatherDisplay:10.37,2013-07-08 08:20:00,
2013-07-08 04:25:00,72.5,44.0,0.00,East,85,0.0,0.0,36,0.00,CLR,,0.00,WeatherDisplay:10.37,2013-07-08 08:25:00,
2013-07-08 04:30:00,72.5,44.0,0.00,East,85,0.0,0.0,36,0.00,CLR,,0.00,WeatherDisplay:10.37,2013-07-08 08:30:00,
2013-07-08 04:35:00,72.5,44.0,0.00,East,85,0.0,0.0,36,0.00,CLR,,0.00,WeatherDisplay:10.37,2013-07-08 08:35:00,
2013-07-08 04:40:00,72.3,44.6,0.00,East,85,0.0,0.0,37,0.00,CLR,,0.00,WeatherDisplay:10.37,2013-07-08 08:40:00,
2013-07-08 04:45:00,72.3,44.6,0.00,East,85,0.0,0.0,37,0.00,CLR,,0.00,WeatherDisplay:10.37,2013-07-08 08:45:00,
2013-07-08 04:50:00,72.3,44.6,0.00,East,85,0.0,0.0,37,0.00,CLR,,0.00,WeatherDisplay:10.37,2013-07-08 08:50:00,
2013-07-08 04:55:00,72.3,44.6,0.00,East,85,0.0,0.0,37,0.00,CLR,,0.00,WeatherDisplay:10.37,2013-07-08 08:55:00,
2013-07-08 05:00:00,72.3,44.6,0.00,East,85,0.0,0.0,37,0.00,CLR,,0.00,WeatherDisplay:10.37,2013-07-08 09:00:00,
2013-07-08 05:05:00,72.1,44.4,0.00,East,85,0.0,0.0,37,0.00,CLR,,0.00,WeatherDisplay:10.37,2013-07-08 09:05:00,
2013-07-08 05:10:00,72.1,44.4,0.00,East,85,0.0,0.0,37,0.00,CLR,,0.00,WeatherDisplay:10.37,2013-07-08 09:10:00,
2013-07-08 05:15:00,72.1,44.4,0.00,East,85,0.0,0.0,37,0.00,CLR,,0.00,WeatherDisplay:10.37,2013-07-08 09:15:00,
2013-07-08 05:20:00,72.0,44.3,0.00,East,85,0.0,0.0,37,0.00,CLR,,0.00,WeatherDisplay:10.37,2013-07-08 09:20:00,
2013-07-08 05:25:00,72.0,44.3,0.00,East,85,0.0,0.0,37,0.00,CLR,,0.00,WeatherDisplay:10.37,2013-07-08 09:25:00,
2013-07-08 05:30:00,71.8,44.1,0.00,East,85,0.0,0.0,37,0.00,CLR,,0.00,WeatherDisplay:10.37,2013-07-08 09:30:00,
2013-07-08 05:35:00,71.8,44.1,0.00,East,85,0.0,0.0,37,0.00,CLR,,0.00,WeatherDisplay:10.37,2013-07-08 09:35:00,
2013-07-08 05:40:00,71.8,44.1,0.00,East,85,0.0,0.0,37,0.00,CLR,,0.00,WeatherDisplay:10.37,2013-07-08 09:40:00,
2013-07-08 05:45:00,71.8,44.1,0.00,East,85,0.0,0.0,37,0.00,CLR,,0.00,WeatherDisplay:10.37,2013-07-08 09:45:00,
2013-07-08 05:50:00,72.0,44.3,0.00,East,85,0.0,0.0,37,0.00,CLR,,0.00,WeatherDisplay:10.37,2013-07-08 09:50:00,
2013-07-08 05:55:00,72.0,44.3,0.00,East,85,0.0,0.0,37,0.00,CLR,,0.00,WeatherDisplay:10.37,2013-07-08 09:55:00,
2013-07-08 06:00:00,72.0,44.3,0.00,East,85,0.0,0.0,37,0.00,CLR,,0.00,WeatherDisplay:10.37,2013-07-08 10:00:00,
2013-07-08 06:05:00,72.0,44.3,0.00,East,85,0.0,0.0,37,0.00,CLR,,0.00,WeatherDisplay:10.37,2013-07-08 10:05:00,
2013-07-08 06:10:00,72.0,44.3,0.00,East,85,0.0,0.0,37,0.00,CLR,,0.00,WeatherDisplay:10.37,2013-07-08 10:10:00,
2013-07-08 06:15:00,71.8,44.1,0.00,East,85,0.0,0.0,37,0.00,CLR,,0.00,WeatherDisplay:10.37,2013-07-08 10:15:00,
2013-07-08 06:20:00,71.8,44.1,0.00,East,85,0.0,0.0,37,0.00,CLR,,0.00,WeatherDisplay:10.37,2013-07-08 10:20:00,
2013-07-08 06:25:00,71.6,43.9,0.00,East,85,0.0,0.0,37,0.00,CLR,,0.00,WeatherDisplay:10.37,2013-07-08 10:25:00,
2013-07-08 06:30:00,71.5,44.5,0.00,East,85,0.0,0.0,38,0.00,CLR,,0.00,WeatherDisplay:10.37,2013-07-08 10:30:00,
2013-07-08 06:35:00,71.4,44.5,0.00,East,85,0.0,0.0,38,0.00,CLR,,0.00,WeatherDisplay:10.37,2013-07-08 10:35:00,
2013-07-08 06:40:00,71.4,44.5,0.00,East,85,0.0,0.0,38,0.00,CLR,,0.00,WeatherDisplay:10.37,2013-07-08 10:40:00,
2013-07-08 06:45:00,71.4,44.5,0.00,East,85,0.0,0.0,38,0.00,CLR,,0.00,WeatherDisplay:10.37,2013-07-08 10:45:00,
2013-07-08 06:50:00,71.6,44.6,0.00,East,85,0.0,0.0,38,0.00,CLR,,0.00,WeatherDisplay:10.37,2013-07-08 10:50:00,
2013-07-08 06:55:00,71.8,44.8,0.00,East,85,0.0,0.0,38,0.00,CLR,,0.00,WeatherDisplay:10.37,2013-07-08 10:55:00,
2013-07-08 07:00:00,71.8,44.8,0.00,East,85,0.0,0.0,38,0.00,CLR,,0.00,WeatherDisplay:10.37,2013-07-08 11:00:00,
2013-07-08 07:05:00,72.0,45.0,0.00,East,85,0.0,0.0,38,0.00,CLR,,0.00,WeatherDisplay:10.37,2013-07-08 11:05:00,
2013-07-08 07:10:00,72.1,45.1,0.00,East,85,0.0,0.0,38,0.00,CLR,,0.00,WeatherDisplay:10.37,2013-07-08 11:10:00,
2013-07-08 07:15:00,72.3,45.3,0.00,East,85,0.0,0.0,38,0.00,CLR,,0.00,WeatherDisplay:10.37,2013-07-08 11:15:00,
2013-07-08 07:20:00,72.7,45.6,0.00,East,85,0.0,0.0,38,0.00,CLR,,0.00,WeatherDisplay:10.37,2013-07-08 11:20:00,
2013-07-08 07:25:00,72.9,45.8,0.00,East,85,0.0,0.0,38,0.00,CLR,,0.00,WeatherDisplay:10.37,2013-07-08 11:25:00,
2013-07-08 07:30:00,73.3,44.7,0.00,East,85,0.0,0.0,36,0.00,CLR,,0.00,WeatherDisplay:10.37,2013-07-08 11:30:00,
2013-07-08 07:35:00,74.1,44.7,0.00,East,85,0.0,0.0,35,0.00,CLR,,0.00,WeatherDisplay:10.37,2013-07-08 11:35:00,
2013-07-08 07:40:00,76.2,45.0,0.00,East,85,0.0,0.0,33,0.00,CLR,,0.00,WeatherDisplay:10.37,2013-07-08 11:40:00,
2013-07-08 07:45:00,78.5,45.4,0.00,East,84,0.0,0.0,31,0.00,CLR,,0.00,WeatherDisplay:10.37,2013-07-08 11:45:00,
2013-07-08 07:50:00,80.2,45.0,0.00,East,83,0.0,0.0,29,0.00,CLR,,0.00,WeatherDisplay:10.37,2013-07-08 11:50:00,
2013-07-08 07:55:00,80.6,43.5,0.00,East,83,0.0,0.0,27,0.00,CLR,,0.00,WeatherDisplay:10.37,2013-07-08 11:55:00,
2013-07-08 08:00:00,79.7,43.7,0.00,East,83,0.0,0.0,28,0.00,CLR,,0.00,WeatherDisplay:10.37,2013-07-08 12:00:00,
2013-07-08 08:05:00,79.7,43.7,0.00,East,79,0.0,0.0,28,0.00,CLR,,0.00,WeatherDisplay:10.37,2013-07-08 12:05:00,
2013-07-08 08:10:00,79.4,43.4,0.00,ENE,66,0.0,0.0,28,0.00,CLR,,0.00,WeatherDisplay:10.37,2013-07-08 12:10:00,
2013-07-08 08:15:00,78.7,42.9,0.00,ENE,59,0.0,0.0,28,0.00,CLR,,0.00,WeatherDisplay:10.37,2013-07-08 12:15:00,
2013-07-08 08:20:00,78.3,43.4,0.00,ENE,70,0.0,0.0,29,0.00,CLR,,0.00,WeatherDisplay:10.37,2013-07-08 12:20:00,
2013-07-08 08:25:00,78.1,43.2,0.00,ENE,70,0.0,0.0,29,0.00,CLR,,0.00,WeatherDisplay:10.37,2013-07-08 12:25:00,
2013-07-08 08:30:00,78.1,44.1,0.00,ENE,78,0.0,0.0,30,0.00,CLR,,0.00,WeatherDisplay:10.37,2013-07-08 12:30:00,
2013-07-08 08:35:00,77.7,43.8,0.00,East,86,0.0,0.0,30,0.00,CLR,,0.00,WeatherDisplay:10.37,2013-07-08 12:35:00,
2013-07-08 08:40:00,76.9,43.9,0.00,East,87,0.0,0.0,31,0.00,CLR,,0.00,WeatherDisplay:10.37,2013-07-08 12:40:00,
2013-07-08 08:45:00,76.8,43.8,0.00,East,95,0.0,0.0,31,0.00,CLR,,0.00,WeatherDisplay:10.37,2013-07-08 12:45:00,
2013-07-08 08:50:00,79.3,45.2,0.00,ESE,103,0.0,0.0,30,0.00,CLR,,0.00,WeatherDisplay:10.37,2013-07-08 12:50:00,
2013-07-08 08:55:00,80.8,42.7,0.00,East,94,0.0,0.0,26,0.00,CLR,,0.00,WeatherDisplay:10.37,2013-07-08 12:55:00,
2013-07-08 09:00:00,80.1,43.1,0.00,ENE,75,0.0,0.0,27,0.00,CLR,,0.00,WeatherDisplay:10.37,2013-07-08 13:00:00,
2013-07-08 09:05:00,79.3,42.4,0.00,ENE,66,0.0,0.0,27,0.00,CLR,,0.00,WeatherDisplay:10.37,2013-07-08 13:05:00,
2013-07-08 09:10:00,78.9,43.0,0.00,ESE,102,0.0,0.0,28,0.00,CLR,,0.00,WeatherDisplay:10.37,2013-07-08 13:10:00,
2013-07-08 09:15:00,79.4,43.5,0.00,East,88,0.0,0.0,28,0.00,CLR,,0.00,WeatherDisplay:10.37,2013-07-08 13:15:00,
2013-07-08 09:20:00,79.6,43.6,0.00,ENE,61,0.0,0.0,28,0.00,CLR,,0.00,WeatherDisplay:10.37,2013-07-08 13:20:00,
2013-07-08 09:25:00,79.3,42.4,0.00,ENE,59,0.0,0.0,27,0.00,CLR,,0.00,WeatherDisplay:10.37,2013-07-08 13:25:00,
2013-07-08 09:30:00,79.2,42.3,0.00,ENE,65,0.0,0.0,27,0.00,CLR,,0.00,WeatherDisplay:10.37,2013-07-08 13:30:00,
2013-07-08 09:35:00,79.1,42.2,0.00,ENE,70,0.0,0.0,27,0.00,CLR,,0.00,WeatherDisplay:10.37,2013-07-08 13:35:00,
2013-07-08 09:40:00,78.8,42.0,0.00,ENE,67,0.0,0.0,27,0.00,CLR,,0.00,WeatherDisplay:10.37,2013-07-08 13:40:00,
2013-07-08 09:45:00,78.4,42.6,0.00,NE,43,0.0,0.0,28,0.00,CLR,,0.00,WeatherDisplay:10.37,2013-07-08 13:45:00,
2013-07-08 09:50:00,78.3,42.5,0.00,ENE,59,0.0,0.0,28,0.00,CLR,,0.00,WeatherDisplay:10.37,2013-07-08 13:50:00,
2013-07-08 09:55:00,78.3,42.5,0.00,ESE,108,0.0,0.0,28,0.00,CLR,,0.00,WeatherDisplay:10.37,2013-07-08 13:55:00,
2013-07-08 10:05:00,78.6,42.8,0.00,East,95,0.0,0.0,28,0.00,CLR,,0.00,WeatherDisplay:10.37,2013-07-08 14:05:00,
2013-07-08 10:10:00,78.9,43.0,0.00,East,85,0.0,0.0,28,0.00,CLR,,0.00,WeatherDisplay:10.37,2013-07-08 14:10:00,
2013-07-08 10:15:00,79.1,42.2,0.00,East,91,0.0,0.0,27,0.00,CLR,,0.00,WeatherDisplay:10.37,2013-07-08 14:15:00,
2013-07-08 10:20:00,79.2,42.3,0.00,East,86,0.0,0.0,27,0.00,CLR,,0.00,WeatherDisplay:10.37,2013-07-08 14:20:00,
2013-07-08 10:25:00,79.2,41.3,0.00,NE,46,0.0,0.0,26,0.00,CLR,,0.00,WeatherDisplay:10.37,2013-07-08 14:25:00,
2013-07-08 10:30:00,79.3,42.4,0.00,NNE,13,0.0,0.0,27,0.00,CLR,,0.00,WeatherDisplay:10.37,2013-07-08 14:30:00,
2013-07-08 10:35:00,79.6,42.6,0.00,SSW,192,0.0,0.0,27,0.00,CLR,,0.00,WeatherDisplay:10.37,2013-07-08 14:35:00,
2013-07-08 10:40:00,80.1,43.1,0.00,SSW,193,0.0,0.0,27,0.00,CLR,,0.00,WeatherDisplay:10.37,2013-07-08 14:40:00,
2013-07-08 10:45:00,80.5,42.5,0.00,SSW,196,0.0,0.0,26,0.00,CLR,,0.00,WeatherDisplay:10.37,2013-07-08 14:45:00,
2013-07-08 10:50:00,81.1,42.9,0.00,WSW,256,0.0,0.0,26,0.00,CLR,,0.00,WeatherDisplay:10.37,2013-07-08 14:50:00,
2013-07-08 10:55:00,80.9,40.7,0.00,WSW,254,0.0,0.0,24,0.00,CLR,,0.00,WeatherDisplay:10.37,2013-07-08 14:55:00,
2013-07-08 11:00:00,80.6,41.5,0.00,WSW,239,0.0,0.0,25,0.00,CLR,,0.00,WeatherDisplay:10.37,2013-07-08 15:00:00,
2013-07-08 11:05:00,80.6,42.5,0.00,WSW,251,0.0,0.0,26,0.00,CLR,,0.00,WeatherDisplay:10.37,2013-07-08 15:05:00,
2013-07-08 11:10:00,80.4,42.4,0.00,WSW,254,0.0,0.0,26,0.00,CLR,,0.00,WeatherDisplay:10.37,2013-07-08 15:10:00,
2013-07-08 11:15:00,80.4,41.4,0.00,NW,307,0.0,0.0,25,0.00,CLR,,0.00,WeatherDisplay:10.37,2013-07-08 15:15:00,
2013-07-08 11:20:00,80.5,42.4,0.00,NE,39,0.0,0.0,26,0.00,CLR,,0.00,WeatherDisplay:10.37,2013-07-08 15:20:00,
2013-07-08 11:25:00,80.9,42.7,0.00,ENE,70,0.0,0.0,26,0.00,CLR,,0.00,WeatherDisplay:10.37,2013-07-08 15:25:00,
2013-07-08 11:30:00,81.2,42.0,0.00,East,82,0.0,0.0,25,0.00,CLR,,0.00,WeatherDisplay:10.37,2013-07-08 15:30:00,
2013-07-08 11:35:00,81.7,41.4,0.00,SSE,161,0.0,0.0,24,0.00,CLR,,0.00,WeatherDisplay:10.37,2013-07-08 15:35:00,
2013-07-08 11:40:00,82.0,41.7,0.00,SSW,193,0.0,4.0,24,0.00,CLR,,0.00,WeatherDisplay:10.37,2013-07-08 15:40:00,
2013-07-08 11:45:00,81.8,40.4,0.00,South,184,0.0,0.0,23,0.00,CLR,,0.00,WeatherDisplay:10.37,2013-07-08 15:45:00,
2013-07-08 11:50:00,81.0,39.7,0.00,South,173,0.0,4.0,23,0.00,CLR,,0.00,WeatherDisplay:10.37,2013-07-08 15:50:00,
2013-07-08 11:55:00,80.6,39.4,0.00,South,175,0.0,0.0,23,0.00,CLR,,0.00,WeatherDisplay:10.37,2013-07-08 15:55:00,
2013-07-08 12:00:00,80.4,39.2,0.00,South,183,0.0,0.0,23,0.00,CLR,,0.00,WeatherDisplay:10.37,2013-07-08 16:00:00,
2013-07-08 12:05:00,79.5,38.5,0.00,SSW,197,2.0,4.0,23,0.00,CLR,,0.00,WeatherDisplay:10.37,2013-07-08 16:05:00,
2013-07-08 12:10:00,79.4,39.5,0.00,SSW,193,0.0,0.0,24,0.00,CLR,,0.00,WeatherDisplay:10.37,2013-07-08 16:10:00,
2013-07-08 12:15:00,79.2,39.2,0.00,SSE,164,0.0,0.0,24,0.00,CLR,,0.00,WeatherDisplay:10.37,2013-07-08 16:15:00,
2013-07-08 12:20:00,79.0,39.1,0.00,SSE,165,0.0,0.0,24,0.00,CLR,,0.00,WeatherDisplay:10.37,2013-07-08 16:20:00,
2013-07-08 12:25:00,78.7,39.9,0.00,SW,218,0.0,0.0,25,0.00,CLR,,0.00,WeatherDisplay:10.37,2013-07-08 16:25:00,
2013-07-08 12:30:00,78.2,40.5,0.00,SW,232,0.0,0.0,26,0.00,CLR,,0.00,WeatherDisplay:10.37,2013-07-08 16:30:00,
2013-07-08 12:35:00,77.0,42.3,0.00,SW,226,0.0,0.0,29,0.00,CLR,,0.00,WeatherDisplay:10.37,2013-07-08 16:35:00,
2013-07-08 12:40:00,76.1,43.3,0.00,SW,226,0.0,0.0,31,0.00,CLR,,0.00,WeatherDisplay:10.37,2013-07-08 16:40:00,
2013-07-08 12:45:00,75.6,42.8,0.00,SW,226,0.0,0.0,31,0.00,CLR,,0.00,WeatherDisplay:10.37,2013-07-08 16:45:00,
2013-07-08 12:50:00,75.7,42.9,0.00,SW,226,0.0,0.0,31,0.00,CLR,,0.00,WeatherDisplay:10.37,2013-07-08 16:50:00,
2013-07-08 12:55:00,75.7,43.8,0.00,SW,226,0.0,0.0,32,0.00,CLR,,0.00,WeatherDisplay:10.37,2013-07-08 16:55:00,
2013-07-08 13:00:00,76.1,44.1,0.00,SW,226,0.0,0.0,32,0.00,CLR,,0.00,WeatherDisplay:10.37,2013-07-08 17:00:00,
2013-07-08 13:05:00,76.6,44.6,0.00,South,187,0.0,0.0,32,0.00,CLR,,0.00,WeatherDisplay:10.37,2013-07-08 17:05:00,
2013-07-08 13:10:00,76.9,43.1,0.00,NE,44,0.0,0.0,30,0.00,CLR,,0.00,WeatherDisplay:10.37,2013-07-08 17:10:00,
2013-07-08 13:20:00,77.2,43.4,0.00,NNE,27,0.0,0.0,30,0.00,CLR,,0.00,WeatherDisplay:10.37,2013-07-08 17:20:00,
2013-07-08 13:25:00,77.5,43.6,0.00,NNE,26,0.0,0.0,30,0.00,CLR,,0.00,WeatherDisplay:10.37,2013-07-08 17:25:00,
2013-07-08 13:35:00,77.4,43.5,0.00,North,357,0.0,0.0,30,0.00,CLR,,0.00,WeatherDisplay:10.37,2013-07-08 17:35:00,
2013-07-08 13:45:00,77.2,43.3,0.00,WSW,237,0.0,0.0,30,0.00,CLR,,0.00,WeatherDisplay:10.37,2013-07-08 17:45:00,
2013-07-08 13:55:00,77.2,43.3,0.00,East,81,0.0,0.0,30,0.00,CLR,,0.00,WeatherDisplay:10.37,2013-07-08 17:55:00,
2013-07-08 14:00:00,77.2,42.5,0.00,East,85,0.0,0.0,29,0.00,CLR,,0.00,WeatherDisplay:10.37,2013-07-08 18:00:00,
2013-07-08 14:10:00,77.1,41.5,0.00,NE,54,0.0,3.0,28,0.00,CLR,,0.00,WeatherDisplay:10.37,2013-07-08 18:10:00,
2013-07-08 14:20:00,76.6,41.1,0.00,South,176,0.0,4.0,28,0.00,CLR,,0.00,WeatherDisplay:10.37,2013-07-08 18:20:00,
2013-07-08 14:35:00,76.7,42.1,0.00,East,99,0.0,4.0,29,0.00,CLR,,0.00,WeatherDisplay:10.37,2013-07-08 18:35:00,
2013-07-08 14:40:00,76.6,42.0,0.00,South,186,0.0,3.0,29,0.00,CLR,,0.00,WeatherDisplay:10.37,2013-07-08 18:40:00,
2013-07-08 14:55:00,75.4,39.1,0.00,SSW,210,0.0,6.0,27,0.00,CLR,,0.00,WeatherDisplay:10.37,2013-07-08 18:55:00,
2013-07-08 15:10:00,75.7,40.3,0.00,East,99,0.0,0.0,28,0.00,CLR,,0.00,WeatherDisplay:10.37,2013-07-08 19:10:00,
2013-07-08 15:25:00,77.2,39.6,0.00,ESE,110,0.0,3.0,26,0.00,CLR,,0.00,WeatherDisplay:10.37,2013-07-08 19:25:00,
2013-07-08 15:30:00,77.7,40.0,0.00,ESE,121,0.0,0.0,26,0.00,CLR,,0.00,WeatherDisplay:10.37,2013-07-08 19:30:00,
2013-07-08 15:35:00,78.0,38.3,0.00,ENE,76,0.0,3.0,24,0.00,CLR,,0.00,WeatherDisplay:10.37,2013-07-08 19:35:00,
2013-07-08 15:40:00,78.3,39.6,0.00,East,83,0.0,0.0,25,0.00,CLR,,0.00,WeatherDisplay:10.37,2013-07-08 19:40:00,
2013-07-08 15:45:00,78.4,38.6,0.00,East,80,2.0,4.0,24,0.00,CLR,,0.00,WeatherDisplay:10.37,2013-07-08 19:45:00,
2013-07-08 16:10:00,77.9,38.2,0.00,East,95,0.0,0.0,24,0.00,CLR,,0.00,WeatherDisplay:10.37,2013-07-08 20:10:00,
2013-07-08 16:20:00,79.6,38.5,0.00,NE,45,0.0,0.0,23,0.00,CLR,,0.00,WeatherDisplay:10.37,2013-07-08 20:20:00,
2013-07-08 16:25:00,80.4,39.2,0.00,ENE,67,0.0,0.0,23,0.00,CLR,,0.00,WeatherDisplay:10.37,2013-07-08 20:25:00,
2013-07-08 16:30:00,80.9,38.4,0.00,SE,124,0.0,3.0,22,0.00,CLR,,0.00,WeatherDisplay:10.37,2013-07-08 20:30:00,
2013-07-08 16:40:00,79.6,37.4,0.00,NNE,28,0.0,0.0,22,0.00,CLR,,0.00,WeatherDisplay:10.37,2013-07-08 20:40:00,
2013-07-08 16:55:00,79.3,38.3,0.00,East,98,0.0,0.0,23,0.00,CLR,,0.00,WeatherDisplay:10.37,2013-07-08 20:55:00,
2013-07-08 17:05:00,79.2,38.2,0.00,SE,130,0.0,0.0,23,0.00,CLR,,0.00,WeatherDisplay:10.37,2013-07-08 21:05:00,
2013-07-08 17:15:00,79.3,38.3,0.00,SE,144,0.0,0.0,23,0.00,CLR,,0.00,WeatherDisplay:10.37,2013-07-08 21:15:00,
2013-07-08 17:20:00,78.8,37.9,0.00,SE,127,0.0,0.0,23,0.00,CLR,,0.00,WeatherDisplay:10.37,2013-07-08 21:20:00,
2013-07-08 17:25:00,78.7,38.8,0.00,East,97,0.0,0.0,24,0.00,CLR,,0.00,WeatherDisplay:10.37,2013-07-08 21:25:00,
2013-07-08 17:30:00,78.6,38.8,0.00,East,80,0.0,3.0,24,0.00,CLR,,0.00,WeatherDisplay:10.37,2013-07-08 21:30:00,
2013-07-08 17:35:00,78.6,38.8,0.00,ENE,66,0.0,0.0,24,0.00,CLR,,0.00,WeatherDisplay:10.37,2013-07-08 21:35:00,
2013-07-08 17:50:00,78.4,38.6,0.00,SSE,165,0.0,0.0,24,0.00,CLR,,0.00,WeatherDisplay:10.37,2013-07-08 21:50:00,
2013-07-08 17:55:00,78.1,38.3,0.00,SSE,160,0.0,0.0,24,0.00,CLR,,0.00,WeatherDisplay:10.37,2013-07-08 21:55:00,
2013-07-08 18:05:00,77.5,37.8,0.00,ENE,74,0.0,0.0,24,0.00,CLR,,0.00,WeatherDisplay:10.37,2013-07-08 22:05:00,
2013-07-08 18:15:00,77.0,37.4,0.00,ENE,74,0.0,0.0,24,0.00,CLR,,0.00,WeatherDisplay:10.37,2013-07-08 22:15:00,
2013-07-08 18:20:00,76.8,38.3,0.00,ENE,74,0.0,0.0,25,0.00,CLR,,0.00,WeatherDisplay:10.37,2013-07-08 22:20:00,
2013-07-08 18:25:00,76.8,38.3,0.00,ENE,74,0.0,0.0,25,0.00,CLR,,0.00,WeatherDisplay:10.37,2013-07-08 22:25:00,
2013-07-08 18:35:00,76.5,38.0,0.00,ENE,74,0.0,0.0,25,0.00,CLR,,0.00,WeatherDisplay:10.37,2013-07-08 22:35:00,
2013-07-08 18:40:00,76.5,39.0,0.00,ENE,73,0.0,0.0,26,0.00,CLR,,0.00,WeatherDisplay:10.37,2013-07-08 22:40:00,
2013-07-08 18:45:00,76.3,38.9,0.00,NE,42,0.0,0.0,26,0.00,CLR,,0.00,WeatherDisplay:10.37,2013-07-08 22:45:00,
2013-07-08 18:50:00,76.5,39.0,0.00,North,7,0.0,0.0,26,0.00,CLR,,0.00,WeatherDisplay:10.37,2013-07-08 22:50:00,
2013-07-08 18:55:00,76.3,38.9,0.00,North,3,0.0,0.0,26,0.00,CLR,,0.00,WeatherDisplay:10.37,2013-07-08 22:55:00,
2013-07-08 19:00:00,76.2,39.8,0.00,North,3,0.0,0.0,27,0.00,CLR,,0.00,WeatherDisplay:10.37,2013-07-08 23:00:00,
2013-07-08 19:05:00,75.9,39.5,0.00,North,3,0.0,0.0,27,0.00,CLR,,0.00,WeatherDisplay:10.37,2013-07-08 23:05:00,
2013-07-08 19:10:00,75.8,40.4,0.00,North,3,0.0,0.0,28,0.00,CLR,,0.00,WeatherDisplay:10.37,2013-07-08 23:10:00,
2013-07-08 19:15:00,75.7,40.3,0.00,North,3,0.0,0.0,28,0.00,CLR,,0.00,WeatherDisplay:10.37,2013-07-08 23:15:00,
2013-07-08 19:20:00,75.6,41.1,0.00,North,3,0.0,0.0,29,0.00,CLR,,0.00,WeatherDisplay:10.37,2013-07-08 23:20:00,
2013-07-08 19:25:00,75.1,42.4,0.00,North,3,0.0,0.0,31,0.00,CLR,,0.00,WeatherDisplay:10.37,2013-07-08 23:25:00,
2013-07-08 19:40:00,75.0,43.1,0.00,North,3,0.0,0.0,32,0.00,CLR,,0.00,WeatherDisplay:10.37,2013-07-08 23:40:00,
2013-07-08 19:55:00,74.8,42.9,0.00,North,3,0.0,0.0,32,0.00,CLR,,0.00,WeatherDisplay:10.37,2013-07-08 23:55:00,
2013-07-08 20:00:00,74.8,43.0,0.00,North,3,0.0,0.0,32,0.00,CLR,,0.00,WeatherDisplay:10.37,2013-07-09 00:00:00,
2013-07-08 20:10:00,74.2,42.4,0.00,North,3,0.0,0.0,32,0.00,RA,,0.04,WeatherDisplay:10.37,2013-07-09 00:10:00,
2013-07-08 20:15:00,73.8,42.1,0.00,North,3,0.0,0.0,32,0.00,RA,,0.04,WeatherDisplay:10.37,2013-07-09 00:15:00,
2013-07-08 20:20:00,73.8,42.9,0.00,North,3,0.0,0.0,33,0.00,CLR,,0.04,WeatherDisplay:10.37,2013-07-09 00:20:00,
2013-07-08 20:30:00,72.9,46.5,0.00,North,3,0.0,0.0,39,0.04,RA,,0.16,WeatherDisplay:10.37,2013-07-09 00:30:00,
2013-07-08 20:40:00,72.3,47.2,0.00,North,3,0.0,0.0,41,0.00,RA,,0.20,WeatherDisplay:10.37,2013-07-09 00:40:00,
2013-07-08 20:50:00,72.0,47.6,0.00,North,3,0.0,0.0,42,0.00,RA,,0.28,WeatherDisplay:10.37,2013-07-09 00:50:00,
2013-07-08 20:55:00,72.0,47.6,0.00,North,3,0.0,0.0,42,0.00,RA,,0.28,WeatherDisplay:10.37,2013-07-09 00:55:00,
2013-07-08 21:10:00,71.6,47.9,0.00,North,3,0.0,0.0,43,0.00,CLR,,0.28,WeatherDisplay:10.37,2013-07-09 01:10:00,
2013-07-08 21:15:00,71.4,48.4,0.00,North,3,0.0,0.0,44,0.00,CLR,,0.28,WeatherDisplay:10.37,2013-07-09 01:15:00,
2013-07-08 21:20:00,71.4,48.4,0.00,North,3,0.0,0.0,44,0.00,CLR,,0.28,WeatherDisplay:10.37,2013-07-09 01:20:00,
2013-07-08 21:30:00,71.4,49.0,0.00,North,3,0.0,0.0,45,0.00,CLR,,0.28,WeatherDisplay:10.37,2013-07-09 01:30:00,
2013-07-08 21:40:00,71.2,48.8,0.00,North,3,0.0,0.0,45,0.00,CLR,,0.28,WeatherDisplay:10.37,2013-07-09 01:40:00,
2013-07-08 21:45:00,71.2,48.8,0.00,North,3,0.0,0.0,45,0.00,CLR,,0.28,WeatherDisplay:10.37,2013-07-09 01:45:00,
2013-07-08 21:50:00,71.2,49.4,0.00,North,3,0.0,0.0,46,0.00,CLR,,0.28,WeatherDisplay:10.37,2013-07-09 01:50:00,
2013-07-08 22:10:00,71.1,49.8,0.00,North,3,0.0,0.0,47,0.00,CLR,,0.28,WeatherDisplay:10.37,2013-07-09 02:10:00,
2013-07-08 22:15:00,71.1,50.4,0.00,North,3,0.0,0.0,48,0.00,CLR,,0.28,WeatherDisplay:10.37,2013-07-09 02:15:00,
2013-07-08 22:25:00,70.9,50.2,0.00,North,3,0.0,0.0,48,0.00,CLR,,0.28,WeatherDisplay:10.37,2013-07-09 02:25:00,
2013-07-08 22:30:00,70.9,50.2,0.00,North,3,0.0,0.0,48,0.00,CLR,,0.28,WeatherDisplay:10.37,2013-07-09 02:30:00,
2013-07-08 22:35:00,70.9,50.2,0.00,North,3,0.0,0.0,48,0.00,CLR,,0.28,WeatherDisplay:10.37,2013-07-09 02:35:00,
2013-07-08 22:40:00,70.9,50.2,0.00,North,3,0.0,0.0,48,0.00,CLR,,0.28,WeatherDisplay:10.37,2013-07-09 02:40:00,
2013-07-08 22:50:00,70.9,50.8,0.00,North,3,0.0,0.0,49,0.00,CLR,,0.28,WeatherDisplay:10.37,2013-07-09 02:50:00,
2013-07-08 22:55:00,71.1,50.9,0.00,North,3,0.0,0.0,49,0.00,CLR,,0.28,WeatherDisplay:10.37,2013-07-09 02:55:00,
2013-07-08 23:10:00,71.1,51.5,0.00,North,3,0.0,0.0,50,0.00,CLR,,0.28,WeatherDisplay:10.37,2013-07-09 03:10:00,
2013-07-08 23:25:00,71.1,52.0,0.00,North,3,0.0,0.0,51,0.00,CLR,,0.28,WeatherDisplay:10.37,2013-07-09 03:25:00,
2013-07-08 23:40:00,71.0,52.5,0.00,North,3,0.0,0.0,52,0.00,CLR,,0.28,WeatherDisplay:10.37,2013-07-09 03:40:00,
2013-07-08 23:50:00,70.9,52.9,0.00,North,3,0.0,0.0,53,0.00,CLR,,0.28,WeatherDisplay:10.37,2013-07-09 03:50:00,
2013-07-08 23:55:00,70.7,52.7,0.00,North,3,0.0,0.0,53,0.00,CLR,,0.28,WeatherDisplay:10.37,2013-07-09 03:55:00,